AMC-3

Last updated on Mon Oct 14 2024 00:02:37 GMT+0000 (Coordinated Universal Time)

1 24936U 97050A 24287.37410635 -.00000257 00000+0 00000+0 0 9990 2 24936 6.6359 70.8876 0003182 150.2764 223.9622 1.00270485 46306
UTC large
Height (km)
Speed (km/s)
/
Latitude / Longitude
Inclination (degrees)
Orbital Period (minutes)
Azimuth
Elevation
Range (km)
Doppler Factor

Next 0 passes for location: London (51.5072 / 0.1276)

Sorry there are no passes over London.